Location: Montreal
(45.5087°N, 73.5540°W)
Time: 11:18:48
(UTC-04:00)

ISS - Visible Passes

Search period start: 10 May 2026 00:00
Search period end: 20 May 2026 00:00
Orbit: 414 x 424 km, 51.6° (Epoch: 10 May)

Date Brightness Start Highest point End Pass type
(mag) Time Alt. Az. Time Alt. Az. Time Alt. Az.
10 May -3.8 21:07:08 10° SW 21:10:26 67° SSE 21:13:46 10° ENE visible
10 May -2.0 22:44:20 10° W 22:47:26 34° NNW 22:50:32 10° NE visible
11 May -1.5 00:21:50 10° NW 00:23:59 25° NNW 00:23:59 25° NNW visible
11 May -2.5 21:56:30 10° W 21:59:42 42° NNW 22:02:55 10° NE visible
11 May -1.7 23:34:06 10° WNW 23:37:02 27° N 23:38:11 22° NE visible
12 May -0.7 01:11:02 10° NW 01:11:07 11° NW 01:11:07 11° NW visible
12 May -3.0 21:08:42 10° WSW 21:12:00 56° NNW 21:15:18 10° ENE visible
12 May -1.7 22:46:19 10° WNW 22:49:15 27° N 22:52:12 10° ENE visible
13 May -1.6 00:23:25 10° NW 00:25:10 25° NW 00:25:10 25° NW visible
13 May -1.8 21:58:28 10° WNW 22:01:27 29° N 22:04:28 10° NE visible
13 May -2.1 23:35:46 10° NW 23:38:51 32° NNE 23:39:08 32° NNE visible
14 May -2.0 21:10:35 10° W 21:13:40 34° NNW 21:16:46 10° NE visible
14 May -1.8 22:48:04 10° NW 22:51:03 29° N 22:53:04 16° ENE visible
15 May -1.4 00:24:52 10° WNW 00:26:00 20° NW 00:26:00 20° NW visible
15 May -1.7 22:00:18 10° WNW 22:03:14 27° N 22:06:10 10° ENE visible
15 May -2.6 23:37:14 10° NW 23:39:55 44° NNW 23:39:55 44° NNW visible
16 May -1.7 21:12:27 10° WNW 21:15:23 27° N 21:18:19 10° ENE visible
16 May -2.5 22:49:34 10° NW 22:52:44 39° NNE 22:53:49 29° ENE visible
17 May -0.9 00:26:22 10° WNW 00:26:45 13° WNW 00:26:45 13° WNW visible
17 May -2.2 22:01:52 10° NW 22:04:55 32° NNE 22:07:43 12° ENE visible
17 May -2.3 23:38:36 10° WNW 23:40:39 34° WNW 23:40:39 34° WNW visible
18 May -1.9 21:14:06 10° NW 21:17:05 29° N 21:20:03 10° ENE visible
18 May -3.7 22:50:54 10° WNW 22:54:15 71° NNE 22:54:33 65° ENE visible
19 May -3.1 22:03:12 10° NW 22:06:29 50° NNE 22:08:28 21° E visible
19 May -1.5 23:40:11 10° WNW 23:41:24 19° W 23:41:24 19° W visible
